[[{"header":{"parameterUnit":"m.s-1","parameterCategory":1,"la1":30.2991,"la2":30.254,"lo1":-89.0895,"lo2":-89.0444,"dy":0.0017,"dx":0.0017,"nx":28,"ny":28,"refTime":"2025-03-20T21:00:00:Z","depth":0,"parameterNumber":2,"parameterNumberName":"U-component_of_WINDS"},"data":[0,0,0,0,0,0,0,0,0,0,0,0,0,0,0,0,0,0,0,0,0,0,0,0,0,0,0,0,0,0,0,0,0,0,0,0,0,0,0,0,0,0,0,0,0,0,0,0,0,0,0,0,0,0,0,0,0,0,-3.3488,-3.3489,0,-3.3501,-3.3502,-3.3502,-3.3453,-3.3452,-3.345,-3.3449,-3.3461,-3.3463,-3.3465,0,0,0,0,0,0,0,0,0,0,0,0,0,-3.3421,-3.3422,-3.3488,-3.3489,-3.3489,-3.3501,-3.3502,-3.3502,-3.3454,-3.3452,-3.345,-3.3448,-3.3461,-3.3463,-3.3465,0,0,0,0,0,0,0,0,0,0,0,0,0,-3.3444,-3.3423,-3.3488,-3.3466,-3.3464,-3.3501,-3.3502,-3.3502,-3.3454,-3.3452,-3.345,-3.3448,-3.346,-3.3462,-3.3465,-3.3524,0,0,-3.3473,-3.3474,0,0,0,0,0,0,0,0,-3.3442,-3.3446,-3.3469,-3.3468,-3.3466,-3.3474,-3.3482,-3.3509,-3.3454,-3.3458,-3.3449,-3.3446,-3.3467,-3.3469,-3.3476,-3.3524,-3.3525,-3.3473,-3.3474,-3.3475,-3.3476,0,0,0,0,0,0,0,-3.3441,-3.3445,-3.3493,-3.347,-3.3468,-3.3455,-3.3456,-3.3487,-3.3474,-3.3457,-3.3454,-3.3456,-3.3466,-3.3474,-3.3476,-3.3525,-3.3473,-3.3475,-3.3477,-3.3477,-3.3622,-3.3624,0,0,0,0,0,0,-3.3442,-3.3444,-3.3493,-3.3494,-3.3449,-3.3458,-3.3459,-3.3473,-3.3474,-3.3472,-3.3458,-3.3454,-3.347,-3.3473,-3.3476,-3.3545,-3.3475,-3.3478,-3.3479,-3.362,-3.3623,-3.3625,0,0,0,0,0,0,-3.3441,-3.3447,-3.3492,-3.3468,-3.3473,-3.3462,-3.3478,-3.3475,-3.3483,-3.3474,-3.3472,-3.3469,-3.3469,-3.3473,-3.3512,-3.3545,-3.3479,-3.3481,-3.3617,-3.3621,-3.3624,-3.3683,0,0,0,0,0,0,-3.3439,-3.3447,-3.3469,-3.3469,-3.3475,-3.3529,-3.348,-3.3476,-3.3487,-3.3482,-3.3484,-3.3482,-3.3467,-3.3509,-3.3515,-3.3547,-3.3483,-3.3614,-3.3619,-3.3623,-3.3678,-3.3688,-3.3697,0,0,0,0,0,-3.3437,-3.3485,-3.3471,-3.3477,-3.3502,-3.3531,-3.3534,-3.3517,-3.349,-3.3512,-3.3507,-3.3482,-3.354,-3.3513,-3.352,-3.3553,-3.3612,-3.3617,-3.3622,-3.3674,-3.3686,-3.3696,0,0,0,0,0,0,-3.3489,-3.3485,-3.3469,-3.3518,-3.3525,-3.3523,-3.355,-3.353,-3.3545,-3.3539,-3.3517,-3.3518,-3.3561,-3.3561,-3.3531,-3.361,-3.3571,-3.3578,-3.3608,-3.362,-3.3629,-3.3628,-3.3485,0,0,0,0,0,-3.3506,-3.353,-3.3525,-3.3569,-3.3573,-3.3561,-3.3573,-3.3559,-3.3566,-3.3568,-3.3566,-3.3573,-3.3593,-3.3606,-3.3624,-3.3678,-3.3678,-3.3704,-3.3713,-3.3721,-3.3727,-3.3755,-3.3767,-3.3642,-3.3642,-3.3642,0,0,-3.3541,-3.3542,-3.3559,-3.3579,-3.3583,-3.3608,-3.3564,-3.3592,-3.3611,-3.3572,-3.361,-3.3609,-3.3615,-3.3662,-3.3683,-3.3663,-3.3761,-3.3728,-3.3734,-3.3736,-3.3762,-3.3774,-3.3784,-3.3646,-3.3645,-3.3645,0,0,-3.3619,-3.3622,-3.3659,-3.3664,-3.3671,-3.3663,-3.3672,-3.3673,-3.3671,-3.3708,-3.368,-3.3702,-3.3736,-3.3742,-3.3749,-3.383,-3.3808,-3.3837,-3.3885,-3.3913,-3.3923,-3.3931,-3.396,-3.3971,-3.3843,-3.3843,-3.3843,0,-3.3662,-3.3699,-3.3681,-3.3711,-3.3721,-3.3689,-3.3726,-3.3732,-3.3744,-3.3751,-3.373,-3.3773,-3.3775,-3.3823,-3.3843,-3.385,-3.3859,-3.3836,-3.3923,-3.3931,-3.3939,-3.3966,-3.3977,-3.3846,-3.3846,-3.3846,-3.3845,0,-3.3752,-3.3778,-3.3807,-3.382,-3.3834,-3.3867,-3.3854,-3.387,-3.3855,-3.3849,-3.3888,-3.3889,-3.3907,-3.3917,-3.3903,-3.3964,-3.3951,-3.3927,-3.3888,-3.3955,-3.398,-3.399,-3.3851,-3.385,-3.3849,-3.3848,0,0,-3.3861,-3.3865,-3.3876,-3.3882,-3.3887,-3.3907,-3.3939,-3.3957,-3.3971,-3.3981,-3.4007,-3.4038,-3.4015,-3.4024,-3.401,-3.4035,-3.4099,-3.4007,-3.4007,-3.4024,-3.4166,-3.4184,-3.4196,-3.4084,-3.4086,-3.4088,-3.4165,0,-3.3937,-3.3993,-3.3978,-3.4033,-3.4057,-3.4027,-3.4056,-3.4062,-3.4058,-3.4077,-3.4072,-3.4094,-3.4063,-3.4068,-3.4091,-3.4086,-3.4127,-3.4081,-3.4108,-3.411,-3.4107,-3.4209,-3.4229,-3.4301,-3.4175,-3.4177,-3.4178,0,-3.4033,-3.4047,-3.4106,-3.4108,-3.4117,-3.4143,-3.4158,-3.4178,-3.4184,-3.4179,-3.419,-3.4171,-3.4203,-3.4164,-3.4208,-3.4177,-3.4187,-3.4187,-3.4189,-3.419,-3.4147,-3.4213,-3.4324,-3.4335,-3.4193,-3.4192,-3.4191,0,-3.4107,-3.4141,-3.418,-3.4186,-3.419,-3.4208,-3.4211,-3.4216,-3.4227,-3.4241,-3.4248,-3.4265,-3.4275,-3.4288,-3.4275,-3.4248,-3.432,-3.428,-3.4317,-3.4317,-3.4333,-3.4332,-3.4447,-3.434,-3.434,-3.434,-3.434,0,-3.4193,-3.423,-3.4213,-3.4237,-3.4278,-3.426,-3.43,-3.4299,-3.4304,-3.4327,-3.4302,-3.4325,-3.4306,-3.4326,-3.4316,-3.4353,-3.4358,-3.4355,-3.4351,-3.4357,-3.4357,-3.4363,-3.4357,-3.4343,-3.4342,-3.4342,-3.4341,0,-3.4282,-3.4272,-3.4313,-3.4314,-3.4315,-3.4345,-3.4345,-3.4367,-3.4361,-3.4391,-3.4397,-3.4388,-3.4411,-3.4399,-3.4423,-3.4416,-3.4464,-3.4454,-3.4462,-3.4459,-3.4496,-3.4493,-3.4618,-3.4634,-3.4518,-3.4519,-3.452,0,-3.4337,-3.4365,-3.4369,-3.4383,-3.4387,-3.441,-3.4422,-3.4406,-3.442,-3.4431,-3.4452,-3.4473,-3.4488,-3.4527,-3.4522,-3.454,-3.453,-3.4573,-3.4532,-3.4537,-3.453,-3.4529,-3.4531,-3.4581,-3.4582,-3.4583,-3.4584,0,-3.4437,-3.4431,-3.445,-3.4468,-3.4483,-3.4496,-3.4507,-3.452,-3.4504,-3.452,-3.4544,-3.4557,-3.4581,-3.4602,-3.4618,-3.462,-3.46,-3.4597,-3.4606,-3.4612,-3.4615,-3.4613,-3.4484,-3.4594,-3.4593,-3.4592,-3.4592,-3.4591,-3.451,-3.4534,-3.454,-3.4562,-3.4569,-3.458,-3.4601,-3.4598,-3.4618,-3.4637,-3.4626,-3.4654,-3.466,-3.4679,-3.4684,-3.4705,-3.4688,-3.4702,-3.4705,-3.4709,-3.4714,-3.4612,-3.4708,-3.4708,-3.4708,-3.4707,-3.4707,0,-3.4608,-3.4611,-3.4632,-3.4648,-3.4665,-3.4645,-3.4656,-3.4672,-3.4697,-3.4705,-3.4721,-3.4749,-3.4769,-3.4767,-3.4785,-3.4803,-3.4794,-3.4808,-3.4807,-3.4807,-3.4728,-3.4718,-3.4815,-3.4815,-3.4815,-3.4815,-3.4815,-3.4815,-3.4661,-3.4699,-3.4695,-3.4736,-3.4739,-3.4766,-3.4774,-3.4784,-3.479,-3.4822,-3.4839,-3.4838,-3.4842,-3.4861,-3.4879,-3.4877,-3.4885,-3.4903,-3.4898,-3.4824,-3.4813,-3.4803,-3.4793,-3.4905,-3.4905,-3.4976,-3.4976,-3.4977]},{"header":{"parameterUnit":"m.s-1","parameterCategory":1,"la1":30.2991,"la2":30.254,"lo1":-89.0895,"lo2":-89.0444,"dy":0.0017,"dx":0.0017,"nx":28,"ny":28,"refTime":"2025-03-20T21:00:00:Z","depth":0,"parameterNumber":3,"parameterNumberName":"V-component_of_WINDS"},"data":[0,0,0,0,0,0,0,0,0,0,0,0,0,0,0,0,0,0,0,0,0,0,0,0,0,0,0,0,0,0,0,0,0,0,0,0,0,0,0,0,0,0,0,0,0,0,0,0,0,0,0,0,0,0,0,0,0,0,-1.7709,-1.771,0,-1.7735,-1.7735,-1.7735,-1.7712,-1.7711,-1.771,-1.7709,-1.7735,-1.7736,-1.7738,0,0,0,0,0,0,0,0,0,0,0,0,0,-1.764,-1.7641,-1.7709,-1.771,-1.771,-1.7735,-1.7735,-1.7735,-1.7712,-1.7711,-1.7709,-1.7708,-1.7734,-1.7736,-1.7738,0,0,0,0,0,0,0,0,0,0,0,0,0,-1.7668,-1.7642,-1.7709,-1.7701,-1.7701,-1.7735,-1.7735,-1.7735,-1.7712,-1.771,-1.7709,-1.7708,-1.7734,-1.7736,-1.7738,-1.7782,0,0,-1.7746,-1.7747,0,0,0,0,0,0,0,0,-1.7667,-1.7671,-1.7702,-1.7702,-1.7701,-1.7719,-1.772,-1.7751,-1.7712,-1.7708,-1.7709,-1.7707,-1.7731,-1.7733,-1.7741,-1.7783,-1.7784,-1.7746,-1.7747,-1.7748,-1.7749,0,0,0,0,0,0,0,-1.7665,-1.767,-1.7719,-1.7703,-1.7702,-1.7696,-1.7699,-1.7726,-1.7727,-1.7708,-1.7706,-1.771,-1.773,-1.7739,-1.7741,-1.7784,-1.7746,-1.7748,-1.7749,-1.775,-1.7862,-1.7864,0,0,0,0,0,0,-1.7664,-1.7668,-1.7719,-1.772,-1.768,-1.7698,-1.7701,-1.7714,-1.7726,-1.7727,-1.7711,-1.7708,-1.7735,-1.7739,-1.7742,-1.7794,-1.7748,-1.775,-1.7752,-1.7861,-1.7863,-1.7864,0,0,0,0,0,0,-1.7662,-1.7668,-1.7718,-1.7694,-1.77,-1.7701,-1.7716,-1.7716,-1.7724,-1.7729,-1.7729,-1.772,-1.7734,-1.7739,-1.7772,-1.7794,-1.7751,-1.7754,-1.7859,-1.7861,-1.7864,-1.7897,0,0,0,0,0,0,-1.766,-1.7668,-1.7685,-1.7694,-1.7701,-1.7747,-1.7718,-1.7717,-1.7729,-1.7726,-1.7737,-1.7737,-1.7734,-1.7768,-1.7774,-1.7797,-1.7755,-1.7857,-1.786,-1.7863,-1.7894,-1.79,-1.7905,0,0,0,0,0,-1.7658,-1.7693,-1.7686,-1.7692,-1.7722,-1.7748,-1.7752,-1.7747,-1.773,-1.7747,-1.775,-1.7737,-1.7791,-1.7772,-1.7778,-1.7802,-1.7856,-1.7859,-1.7863,-1.7891,-1.7899,-1.7905,0,0,0,0,0,0,-1.7687,-1.7694,-1.7686,-1.7726,-1.7737,-1.7744,-1.7765,-1.7755,-1.7772,-1.7768,-1.7761,-1.7764,-1.7799,-1.7803,-1.7783,-1.7844,-1.782,-1.7825,-1.784,-1.7847,-1.7853,-1.7851,-1.7757,0,0,0,0,0,-1.7697,-1.7719,-1.7724,-1.7758,-1.7764,-1.7764,-1.7775,-1.777,-1.7781,-1.7786,-1.7791,-1.7802,-1.7821,-1.7834,-1.7852,-1.7894,-1.7896,-1.7913,-1.7919,-1.7924,-1.7928,-1.795,-1.7958,-1.7876,-1.7876,-1.7876,0,0,-1.772,-1.7727,-1.7741,-1.7764,-1.7772,-1.7794,-1.7768,-1.7792,-1.7808,-1.779,-1.7821,-1.7825,-1.7837,-1.7874,-1.7891,-1.7879,-1.7951,-1.7928,-1.7932,-1.7934,-1.7955,-1.7962,-1.7969,-1.7878,-1.7878,-1.7877,0,0,-1.7773,-1.778,-1.7809,-1.7817,-1.783,-1.7829,-1.7836,-1.7845,-1.7847,-1.7879,-1.7865,-1.7884,-1.7917,-1.7926,-1.7935,-1.799,-1.7979,-1.7996,-1.8027,-1.8048,-1.8055,-1.8061,-1.808,-1.8087,-1.8001,-1.8001,-1.8001,0,-1.7799,-1.7832,-1.7825,-1.7851,-1.7861,-1.7845,-1.7874,-1.7883,-1.79,-1.7908,-1.7894,-1.7935,-1.7942,-1.7982,-1.7995,-1.8003,-1.801,-1.7995,-1.8054,-1.806,-1.8065,-1.8084,-1.8091,-1.8003,-1.8003,-1.8002,-1.8002,0,-1.7864,-1.7887,-1.7909,-1.7926,-1.7939,-1.7966,-1.7963,-1.7977,-1.7971,-1.7972,-1.8004,-1.8011,-1.803,-1.8039,-1.8033,-1.8077,-1.807,-1.8055,-1.8032,-1.8075,-1.8093,-1.81,-1.8006,-1.8005,-1.8004,-1.8004,0,0,-1.7936,-1.7949,-1.7957,-1.7965,-1.7976,-1.7994,-1.802,-1.8038,-1.805,-1.8063,-1.8084,-1.8113,-1.8099,-1.811,-1.8105,-1.8123,-1.8166,-1.8107,-1.8107,-1.8118,-1.8215,-1.8226,-1.8235,-1.8159,-1.816,-1.8161,-1.8214,0,-1.7989,-1.8035,-1.8029,-1.8073,-1.8094,-1.8078,-1.8101,-1.811,-1.8112,-1.8129,-1.813,-1.815,-1.8131,-1.8137,-1.8155,-1.8157,-1.8186,-1.8153,-1.8179,-1.818,-1.8177,-1.8244,-1.8256,-1.8306,-1.8221,-1.8222,-1.8223,0,-1.8058,-1.8072,-1.8118,-1.8126,-1.8135,-1.8155,-1.8171,-1.8188,-1.8199,-1.8198,-1.8209,-1.8201,-1.8227,-1.8202,-1.8237,-1.8215,-1.8225,-1.8228,-1.823,-1.8232,-1.8205,-1.8249,-1.8321,-1.8329,-1.8234,-1.8233,-1.8232,0,-1.8106,-1.8137,-1.8168,-1.8175,-1.8185,-1.82,-1.8205,-1.8214,-1.8225,-1.8239,-1.8246,-1.8263,-1.8273,-1.8286,-1.8282,-1.8264,-1.8319,-1.8294,-1.8319,-1.8319,-1.8332,-1.8331,-1.8408,-1.8338,-1.8337,-1.8337,-1.8337,0,-1.8166,-1.8195,-1.819,-1.8209,-1.8241,-1.8234,-1.8265,-1.8268,-1.8276,-1.8295,-1.8282,-1.8301,-1.8294,-1.8312,-1.8309,-1.8339,-1.8343,-1.8344,-1.8343,-1.8345,-1.8345,-1.8352,-1.8349,-1.8339,-1.8339,-1.8338,-1.8338,0,-1.8226,-1.8224,-1.8257,-1.8263,-1.8266,-1.8289,-1.8294,-1.8312,-1.8312,-1.8337,-1.8342,-1.8342,-1.8362,-1.836,-1.8382,-1.838,-1.8418,-1.8412,-1.8414,-1.8413,-1.8439,-1.8437,-1.8523,-1.8534,-1.8456,-1.8457,-1.8458,0,-1.8264,-1.8286,-1.8295,-1.8307,-1.8313,-1.8333,-1.8344,-1.8338,-1.835,-1.8363,-1.8379,-1.8399,-1.8414,-1.8447,-1.8449,-1.8466,-1.8461,-1.849,-1.8464,-1.8466,-1.8462,-1.8461,-1.8463,-1.8496,-1.8497,-1.8497,-1.8498,0,-1.8333,-1.8331,-1.8348,-1.8365,-1.8379,-1.8391,-1.8403,-1.8413,-1.8408,-1.8422,-1.8443,-1.8455,-1.8478,-1.8497,-1.8513,-1.8518,-1.8507,-1.8506,-1.8513,-1.8516,-1.8516,-1.8517,-1.8429,-1.8504,-1.8504,-1.8503,-1.8503,-1.8503,-1.8384,-1.8402,-1.8411,-1.843,-1.8438,-1.8449,-1.8466,-1.8468,-1.8485,-1.8503,-1.8498,-1.8522,-1.8531,-1.8552,-1.8558,-1.8576,-1.8566,-1.8576,-1.8578,-1.8581,-1.8584,-1.8513,-1.8579,-1.8579,-1.8579,-1.8579,-1.8579,0,-1.8452,-1.8457,-1.8475,-1.8491,-1.8506,-1.8494,-1.8506,-1.8519,-1.854,-1.855,-1.8565,-1.8588,-1.8607,-1.861,-1.8627,-1.8641,-1.8637,-1.8646,-1.8645,-1.8647,-1.8592,-1.8585,-1.8649,-1.8649,-1.8649,-1.8649,-1.8649,-1.8649,-1.849,-1.852,-1.8519,-1.8553,-1.8557,-1.858,-1.8588,-1.8598,-1.8605,-1.8632,-1.8648,-1.8649,-1.8656,-1.8674,-1.869,-1.8691,-1.8698,-1.8709,-1.8708,-1.8657,-1.865,-1.8644,-1.8636,-1.8711,-1.8711,-1.876,-1.8761,-1.8761]}]]